Weather History for KBIX - October, 2012

Change the Weather History Date:

Wednesday, October 10, 2012

  Actual Average Record
Temperature  
Mean Temperature 70 °F -  
Max Temperature 82 °F 80 °F 89 °F (1997)
Min Temperature 59 °F 61 °F 46 °F (1976)
Cooling Degree Days 5    
Growing Degree Days 20 (Base 50)    
Moisture  
Dew Point 63 °F    
Average Humidity 79    
Maximum Humidity 97    
Minimum Humidity 56    
Precipitation  
Precipitation 0.00 in - - ()
Sea Level Pressure  
Sea Level Pressure 30.13 in    
Wind  
Wind Speed 2 mph (ESE)    
Max Wind Speed 7 mph    
Max Gust Speed -    
Visibility 10 miles    
Events      
Averages and records for this station are not official NWS values.
T = Trace of Precipitation, MM = Missing Value Source: NWS Daily Summary

Daily Weather History Graph

Daily Weather History Graph

Search for Another Location

Airport or City:

Trip Planner

Search our weather history database for the weather conditions in past years. The results will help you decide how hot, cold, wet, or windy it might be!

Date:

Astronomy

Oct. 10, 2012 Rise Set
Actual Time 6:54 AM CDT 6:29 PM CDT
Civil Twilight 6:30 AM CDT 6:53 PM CDT
Nautical Twilight 6:02 AM CDT 7:21 PM CDT
Astronomical Twilight 5:35 AM CDT 7:49 PM CDT
Moon 1:51 AM CDT (10/10) 3:14 PM CDT (10/10)
Length of Visible Light 12h 22m
Length of Day
11h 34m
Waning Crescent, 27% of the Moon is Illuminated
Oct 10
Waning Crescent
Oct 15
New
Oct 21
First Quarter
Oct 29
Full
Nov 6
Last Quarter

Hourly Weather History & Observations

Time (CDT) Temp. Heat Index Dew Point Humidity Pressure Visibility Wind Dir Wind Speed Gust Speed Precip Events Conditions
12:55 AM 64.0 °F - 63.1 °F 97% 30.08 in 10.0 mi Calm Calm - N/A   Clear
1:55 AM 62.6 °F - 61.7 °F 97% 30.09 in 10.0 mi Calm Calm - N/A   Clear
2:55 AM 61.5 °F - 59.7 °F 94% 30.10 in 10.0 mi Calm Calm - N/A   Clear
3:55 AM 60.8 °F - 59.2 °F 94% 30.11 in 10.0 mi Calm Calm - N/A   Clear
4:55 AM 61.2 °F - 59.0 °F 93% 30.11 in 10.0 mi Calm Calm - N/A   Clear
5:55 AM 59.7 °F - 58.3 °F 95% 30.14 in 10.0 mi NE 3.5 mph - N/A   Clear
6:55 AM 59.2 °F - 57.6 °F 94% 30.14 in 10.0 mi NE 4.6 mph - N/A   Clear
7:55 AM 62.1 °F - 59.7 °F 92% 30.14 in 10.0 mi Calm Calm - N/A   Clear
8:55 AM 66.4 °F - 62.1 °F 86% 30.16 in 10.0 mi Calm Calm - N/A   Clear
9:55 AM 72.1 °F - 63.7 °F 75% 30.18 in 10.0 mi Calm Calm - N/A   Clear
11:55 AM 79.9 °F - 63.1 °F 56% 30.16 in 10.0 mi Calm Calm - N/A   Clear
12:55 PM 80.2 °F 82.2 °F 65.8 °F 61% 30.14 in 10.0 mi SW 5.8 mph - N/A   Clear
1:55 PM 80.1 °F 82.0 °F 65.7 °F 61% 30.11 in 10.0 mi SW 6.9 mph - N/A   Clear
2:55 PM 81.9 °F 84.1 °F 66.0 °F 59% 30.09 in 10.0 mi SSW 4.6 mph - N/A   Scattered Clouds
3:55 PM 81.0 °F 83.2 °F 66.4 °F 61% 30.09 in 10.0 mi SSW 6.9 mph - N/A   Scattered Clouds
4:55 PM 79.5 °F - 66.9 °F 65% 30.09 in 10.0 mi SW 5.8 mph - N/A   Mostly Cloudy
5:55 PM 76.5 °F - 67.8 °F 75% 30.10 in 10.0 mi SW 5.8 mph - N/A   Mostly Cloudy
6:55 PM 76.3 °F - 66.6 °F 72% 30.11 in 10.0 mi Calm Calm - N/A   Overcast
7:55 PM 74.7 °F - 65.1 °F 72% 30.14 in 10.0 mi ENE 4.6 mph - N/A   Clear
8:55 PM 73.0 °F - 64.9 °F 76% 30.15 in 10.0 mi ENE 3.5 mph - N/A   Clear
9:55 PM 71.4 °F - 64.9 °F 80% 30.16 in 10.0 mi East 3.5 mph - N/A   Clear
10:55 PM 70.9 °F - 64.8 °F 81% 30.18 in 10.0 mi ENE 3.5 mph - N/A   Clear
11:55 PM 68.4 °F - 64.2 °F 87% 30.17 in 10.0 mi ENE 3.5 mph - N/A   Clear